Location: Clark Mills
(43.0923°N, 75.3796°W)
Time: 02:38:24
(UTC+00:00)

Daily predictions for brighter satellites

Satellite Brightness Start Highest point End
(mag) Time Altitude Azimuth Time Altitude Azimuth Time Altitude Azimuth
Cosmos 1536 Rocket 4.3 00:01:07 10° N 00:05:10 34° ENE 00:08:22 15° SE
Cosmos 372 Rocket 3.9 00:02:11 10° SSW 00:07:25 76° ESE 00:12:39 10° NNE
FREGAT/IRIS 4.4 00:08:33 14° NE 00:08:33 14° NE 00:09:25 10° NNE
Cosmos 2263 Rocket 3.5 00:03:50 10° SW 00:09:06 43° WNW 00:14:27 10° NNE
Cosmos 1464 Rocket 3.9 00:03:50 10° S 00:09:52 67° E 00:16:00 10° NNE
Cosmos 1025 Rocket 3.2 00:06:08 10° N 00:10:25 50° ENE 00:14:41 10° SSE
Cosmos 1844 4.2 00:05:24 10° S 00:10:30 35° ESE 00:15:35 10° NE
USA 186 2.4 00:11:48 26° ESE 00:12:54 35° ENE 00:15:54 10° N
BREEZE-M DEB (TANK) 3.4 00:10:00 10° SW 00:12:59 59° SE 00:21:49 10° ENE
Cosmos 1844 Rocket 2.8 00:09:56 10° S 00:15:13 48° ESE 00:20:35 10° NE
Cosmos 1867 3.6 00:10:22 10° NW 00:15:52 83° WSW 00:21:02 11° SSE
Cosmos 1626 4.5 00:17:52 10° NE 00:17:55 10° NE 00:17:55 10° NE
ISS -2.9 00:17:01 10° WSW 00:20:18 50° NNW 00:22:47 16° NE
Cosmos 2151 Rocket 3.6 00:18:15 10° S 00:22:37 61° E 00:27:03 10° NNE
USA 234 3.8 00:17:29 10° ENE 00:23:19 34° SE 00:29:09 10° S
Lacrosse 5 rocket 4.0 00:23:54 10° NW 00:26:17 14° N 00:28:43 10° NNE
Cosmos 2150 Rocket 4.0 00:21:45 10° S 00:27:04 71° ESE 00:32:31 10° NNE
MetOp-A 4.4 00:26:18 22° SE 00:29:30 48° ENE 00:34:38 10° N
Cosmos 1125 Rocket 3.6 00:26:18 10° S 00:31:25 51° ESE 00:36:34 10° NNE
MOS 1 4.4 00:27:57 18° SE 00:32:05 56° ENE 00:37:39 10° N
CZ-2C R/B 2.6 00:29:29 10° WSW 00:32:13 20° S 00:32:43 20° S
DMSP B5D2-2 4.2 00:31:13 10° NNE 00:36:23 52° E 00:41:31 10° S
NOSS 3-2 (C) 4.3 00:30:31 10° NNW 00:37:52 55° NE 00:42:22 28° ESE
Cosmos 1833 Rocket 4.4 00:35:44 10° N 00:39:16 17° NE 00:40:11 16° ENE
Exosat Rocket 3.6 00:33:47 10° S 00:39:23 54° ESE 00:44:16 10° NNE
NOSS 3-4 (A) 3.9 00:35:52 10° S 00:41:03 33° ESE 00:42:16 31° E
NOSS 3-4 (C) 3.9 00:36:00 10° S 00:41:09 33° ESE 00:41:56 32° E
Cosmos 468 4.5 00:44:31 10° NNW 00:49:54 89° WSW 00:52:48 28° SSE
Cosmos 1674 2.5 00:50:02 10° N 00:53:53 74° E 00:54:01 73° ESE
Meteor 1-15 Rocket 4.1 00:48:45 10° S 00:54:21 81° E 01:00:05 10° NNE
Cosmos 1805 3.5 00:57:53 53° NE 00:57:53 53° NE 01:01:03 10° NNE
Abrixas rocket 3.7 00:55:19 10° NW 00:57:14 26° NNW 00:57:14 26° NNW
Resurs 01 Rocket 2.6 00:59:15 32° NE 00:59:15 32° NE 01:02:26 10° N
H-2A R/B 3.6 00:54:36 10° SSW 00:59:02 33° W 01:03:36 10° NNW
IRS-1A Rocket 4.5 00:55:43 16° S 01:00:31 77° WSW 01:06:24 10° NNW
Cosmos 1048 Rocket 4.1 00:55:13 10° NNW 01:00:33 76° WSW 01:03:09 31° S
Nadezhda 4 Rocket 4.1 00:55:55 10° NNW 01:02:02 74° W 01:07:55 11° S
ATLAS 2AS CENTAUR R/B 3.1 00:56:01 10° S 01:03:34 51° ESE 01:11:08 10° NE
BREEZE-M TANK 2.9 00:55:28 10° WSW 01:04:20 84° NNW 01:05:14 54° ENE
Cosmos 2034 Rocket 4.5 01:02:07 10° SSW 01:08:25 62° W 01:14:43 10° N
CENTAUR R/B 3.2 01:02:32 10° NW 01:10:41 75° NE 01:14:15 41° SE
ARIANE 5 R/B 4.4 01:17:01 21° NNE 01:17:01 21° NNE 01:18:51 10° N
Cosmos 1269 Rocket 4.2 01:10:22 10° NNW 01:15:25 53° ENE 01:15:25 53° ENE
Okean 1 Rocket 3.2 01:16:18 54° SSW 01:17:15 76° W 01:21:46 10° N
ATLAS 3B R/B 3.5 01:12:37 10° NNW 01:18:48 35° NE 01:20:03 33° ENE
Ariane Rocket 3.8 01:16:43 21° SSW 01:19:54 47° W 01:24:49 10° NNW
KORONAS-FOTON 4.5 01:16:35 10° NNW 01:20:24 53° W 01:20:24 53° W
OBJECT-B 2.9 01:23:19 24° NNW 01:23:19 24° NNW 01:24:49 10° NNW
Cosmos 2082 Rocket 3.8 01:20:03 10° N 01:23:32 20° NE 01:23:32 20° NE
Cosmos 494 Rocket 4.1 01:20:46 10° NNW 01:26:01 70° WSW 01:26:49 60° SSW
USA 238 DEB 4.1 01:19:11 10° NW 01:26:23 66° WSW 01:29:18 39° S
USA 238 4.1 01:19:17 10° NW 01:26:30 67° WSW 01:29:22 40° S
Meteor 2-5 Rocket 3.7 01:21:10 10° N 01:26:51 86° W 01:27:52 62° S
Resurs 1-3 4.0 01:32:05 62° NW 01:32:05 62° NW 01:35:57 10° NNW
Meteor 1-22 Rocket 4.2 01:32:16 68° S 01:33:03 85° E 01:39:08 10° N
CZ-2C R/B 3.8 01:28:14 10° N 01:33:29 45° WNW 01:38:47 10° SW
SJ-6B 4.5 01:33:14 28° WSW 01:33:32 28° W 01:36:49 10° NW
COSMOS 2406 3.6 01:33:28 10° NNW 01:38:13 50° NNE 01:38:13 50° NNE
Cosmos 1634 Rocket 4.0 01:37:16 39° SSW 01:39:45 78° W 01:45:59 10° N
Meteor 1-24 Rocket 3.7 01:39:05 10° NNW 01:44:32 80° W 01:44:32 80° W
SPOT 3 Rocket 3.8 01:44:55 63° W 01:44:55 63° W 01:50:02 10° NNW
ISS -0.4 01:55:06 10° WNW 01:55:46 13° NW 01:55:46 13° NW
Lacrosse 4 Rocket 4.1 01:59:28 10° N 01:59:57 12° N 01:59:57 12° N
USA 234 3.3 02:04:41 48° NNE 02:06:39 73° NW 02:13:09 10° WSW
Lacrosse 5 rocket 4.1 02:04:13 10° NNW 02:06:10 15° N 02:06:10 15° N
Cosmos 2279 Rocket 4.5 02:21:54 57° NW 02:21:54 57° NW 02:27:24 10° N
Cosmos 1833 Rocket 3.8 02:18:20 10° NNW 02:21:52 40° NNW 02:21:52 40° NNW
NOSS 3-4 (A) 4.5 02:26:00 10° WSW 02:34:00 32° N 02:37:47 10° NNE
Resurs 01 Rocket 4.2 02:36:49 18° WNW 02:36:49 18° WNW 02:38:31 10° NW
Terra 4.4 02:42:40 14° N 02:42:40 14° N 02:43:25 10° N
ATLAS 2AS CENTAUR R/B 3.8 02:47:06 10° WSW 02:54:43 47° NW 03:02:15 10° NNE
CENTAUR R/B 4.4 02:54:02 10° NW 03:01:03 30° WSW 03:01:26 30° WSW
Cosmos 2082 Rocket 4.2 03:03:16 10° NNW 03:05:22 24° NNW 03:05:22 24° NNW
ATLAS 3B R/B 3.8 03:03:05 10° NW 03:07:18 39° WNW 03:07:18 39° WNW
SL-16 R/B 4.4 06:30:27 23° N 06:30:27 23° N 06:32:38 10° N
Cosmos 1697 Rocket 4.3 07:06:50 31° NE 07:06:50 31° NE 07:09:52 10° NNE
Cosmos 1980 Rocket 3.8 07:10:59 28° E 07:10:59 28° E 07:14:40 10° NE
USA 234 4.4 07:06:50 10° E 07:12:45 39° NNE 07:17:05 18° NW
ADEOS II 3.5 07:25:16 10° NNE 07:28:10 34° NNE 07:28:10 34° NNE
ARIANE 5 R/B 3.8 07:28:44 10° NNE 07:32:21 37° ENE 07:32:21 37° ENE
CZ-3B R/B 4.3 07:37:59 22° NNE 07:37:59 22° NNE 07:40:40 10° NE
IDEFIX/ARIANE 42P 3.7 07:34:29 10° NNE 07:39:15 39° E 07:39:15 39° E
Nadezhda 3 Rocket 4.2 07:41:12 65° NNE 07:41:12 65° NNE 07:46:27 10° N
SJ 16-02 3.8 07:47:03 10° N 07:50:27 21° ENE 07:53:49 10° ESE
Cosmos 44 4.5 07:54:54 37° ENE 07:54:54 37° ENE 07:57:55 10° NE
H-2A R/B 4.2 07:56:25 10° ESE 08:00:02 26° ENE 08:03:43 10° N
Lacrosse 5 2.7 08:06:13 42° N 08:06:13 42° N 08:10:12 10° NE
CZ-2D R/B 4.2 08:02:29 10° NNW 08:04:04 16° NNW 08:04:04 16° NNW
Cosmos 2278 3.7 08:08:13 76° N 08:08:13 76° N 08:13:34 10° NNE
Resurs 1-4 Rocket 4.2 08:08:54 10° NNW 08:10:13 14° NNW 08:10:13 14° NNW
Cosmos 2369 4.2 08:17:21 46° NW 08:17:21 46° NW 08:22:16 10° NNE
X-37B 3.4 08:18:53 19° ENE 08:18:53 19° ENE 08:19:57 10° E
ATLAS 5 CENTAUR R/B 4.3 08:16:47 10° NNW 08:17:08 10° NNW 08:17:41 10° NNW
NOSS 3-3 (A) 3.9 08:19:03 57° S 08:20:05 69° ESE 08:26:26 10° NE
NOSS 3-3 (C) 3.9 08:19:13 57° S 08:20:12 68° ESE 08:26:30 10° NE
USA 267 3.3 08:14:39 10° NE 08:21:08 65° NW 08:22:28 54° W
Cosmos 1339 Rocket 4.5 08:29:39 31° S 08:32:55 83° E 08:39:09 10° N
Spot 4 Rocket 3.9 08:29:26 10° N 08:34:35 75° WNW 08:35:06 68° WSW
ATLAS 2AS CENTAUR R/B 4.4 08:29:02 10° NNW 08:35:46 33° NE 08:42:03 10° E
Cosmos 972 4.3 08:36:49 66° WNW 08:36:51 66° WNW 08:41:44 10° NNE
SL-8 R/B 3.6 08:39:54 62° NW 08:40:41 83° NNE 08:45:27 10° ESE
ADEOS Rocket 4.2 08:36:26 10° SE 08:42:51 46° ENE 08:48:41 10° N
Cosmos 921 Rocket 2.7 08:43:18 84° WNW 08:43:18 84° WNW 08:47:28 10° NNE
Cosmos 2360 Rocket 4.4 08:39:26 10° SSE 08:43:46 23° E 08:48:07 10° NE
Cosmos 1898 Rocket 4.5 08:38:46 10° N 08:43:52 48° ENE 08:48:58 10° SE
MSX 3.7 08:38:44 10° NNE 08:44:32 82° WNW 08:47:05 35° SSW
Cosmos 1812 2.7 08:46:42 75° SSE 08:46:56 81° E 08:50:48 10° N
CZ-4C R/B 3.1 08:47:18 71° N 08:47:18 71° N 08:50:34 10° N
Timation 1 Rocket 4.4 08:41:17 10° NW 08:47:04 50° WSW 08:52:49 10° S
Cosmos 1500 3.1 08:43:56 10° N 08:47:32 78° NNW 08:47:32 78° NNW
Cosmos 1697 Rocket 3.9 08:48:35 25° NW 08:48:42 25° NW 08:53:19 10° N
USA 305 4.3 08:51:58 26° NW 08:52:35 27° NNW 08:56:14 10° NE
Cosmos 1666 3.8 08:49:40 10° N 08:53:22 45° ENE 08:57:00 10° SSE
Cosmos 1980 Rocket 2.7 08:52:46 38° WNW 08:53:34 40° WNW 08:58:55 10° NNE
Cosmos 1707 Rocket 4.4 08:49:30 10° SSE 08:53:39 48° E 08:57:50 10° NNE
USA 234 3.2 08:48:51 10° SE 08:55:23 85° SW 09:01:58 10° NW
USA 306 4.3 08:56:00 24° NW 08:56:50 26° NNW 09:00:26 10° NE
IRIDIUM 114 4.3 08:51:48 10° N 08:57:03 85° E 09:02:16 10° S
BREEZE-M DEB (TANK) 3.4 08:55:57 29° SW 08:59:51 64° SSE 09:03:18 10° ENE
Cosmos 2322 Rocket 2.7 08:55:32 14° S 09:00:22 59° ESE 09:05:58 10° NNE
Cosmos 2263 Rocket 2.1 08:55:41 10° NNW 09:01:21 78° WSW 09:07:01 10° SSE
BREEZE-M DEB (TANK) 2.8 09:01:04 51° NW 09:01:30 56° NNW 09:07:26 10° ENE
USA 32 4.5 08:57:33 10° N 09:02:47 64° E 09:07:59 10° SSE
IRIDIUM 103 4.2 09:00:57 10° N 09:06:11 80° W 09:11:24 10° S
Cosmos 1937 Rocket 4.1 09:04:22 10° NNW 09:09:27 57° ENE 09:14:29 10° SE
ADEOS II 4.0 09:06:52 10° NNW 09:09:07 14° NW 09:09:07 14° NW
SL-16 R/B 2.2 09:05:31 19° SSW 09:09:37 85° ESE 09:15:20 10° NNE
Cosmos 2228 Rocket 3.5 09:09:42 38° W 09:10:00 39° WNW 09:14:10 10° N
SL-4 R/B 2.6 09:08:18 32° SSW 09:10:16 61° SE 09:14:59 10° ENE
Cosmos 1934 Rocket 4.4 09:05:15 10° NNW 09:10:40 35° W 09:12:49 27° SW
FALCON 9 DEB 3.4 09:10:01 45° SSW 09:10:46 60° SE 09:14:10 10° ENE
Cosmos 1733 Rocket 4.3 09:07:57 10° N 09:12:06 42° ENE 09:16:12 10° SSE
ARIANE 5 R/B 3.6 09:08:24 10° NNW 09:12:25 24° WNW 09:12:41 24° WNW
ADEOS 4.4 09:09:22 10° NNE 09:14:28 51° E 09:19:32 10° S
USA 276 4.1 09:13:49 18° NNW 09:15:06 23° N 09:17:46 10° ENE
Meteor 1-4 Rocket 2.5 09:16:32 45° WSW 09:17:12 55° WNW 09:20:40 10° N
Cosmos 841 Rocket 4.3 09:12:20 10° S 09:17:21 51° ESE 09:22:27 10° NNE
Gbstr 26 Del rocket 4.4 09:09:22 10° WNW 09:17:31 89° SSW 09:24:40 10° SE
Cosmos 44 Rocket 4.4 09:13:21 10° S 09:17:46 41° ESE 09:22:18 10° NE
IDEFIX/ARIANE 42P 3.5 09:14:23 10° N 09:18:50 28° WNW 09:20:03 26° W
ASTEX 1 4.5 09:14:55 10° NNW 09:18:58 25° WNW 09:19:17 25° W
CZ-2C R/B 2.4 09:13:50 10° N 09:18:59 81° WNW 09:24:10 10° SSW
Cosmos 1869 Rocket 3.7 09:15:03 10° NNW 09:19:14 48° W 09:23:23 10° SSW
Cosmos 2227 4.3 09:15:00 10° NW 09:20:26 50° WSW 09:25:50 10° S
CZ-2C R/B 3.7 09:18:24 10° N 09:21:41 28° WNW 09:21:45 28° WNW
Meteor 1-10 Rocket 4.3 09:17:09 15° SSW 09:21:49 58° WNW 09:27:37 10° N
ERBS 3.1 09:22:46 33° WNW 09:23:26 36° NW 09:26:35 10° NNE
IRIDIUM 106 4.4 09:19:22 10° NNW 09:24:28 54° W 09:29:32 10° SSW
Cosmos 1763 Rocket 3.5 09:21:35 16° SSW 09:25:51 70° WNW 09:31:10 10° NNE
Cosmos 1862 Rocket 4.3 09:23:33 10° S 09:27:50 55° E 09:32:06 10° NNE
SJ 16-02 1.8 09:25:05 10° NW 09:29:09 38° WSW 09:33:12 10° S
PSLV R/B 3.6 09:27:21 10° N 09:31:26 51° WNW 09:34:42 15° SW
Cosmos 1743 4.5 09:29:02 10° N 09:32:35 35° ENE 09:36:05 10° SE
CZ-4B R/B 1.3 09:32:04 10° SSE 09:35:12 83° ENE 09:38:26 10° N
H-2A R/B 2.8 09:31:58 10° SSW 09:35:51 32° W 09:39:51 10° NNW
DEBRIS 2.9 09:34:58 27° W 09:36:13 50° SSW 09:41:54 10° SE
Cosmos 1570 Rocket 4.2 09:34:20 10° SSW 09:39:37 80° ESE 09:44:59 10° NNE
PKM 4.0 09:36:58 10° NW 09:40:40 73° NE 09:44:40 10° SE
Cosmos 1689 Rocket 3.7 09:42:05 10° SE 09:44:51 37° ENE 09:47:38 10° N
PAYLOAD A 4.4 09:41:47 10° N 09:46:06 37° WNW 09:50:24 10° SW
Cosmos 2016 Rocket 4.3 09:42:22 10° N 09:48:30 73° E 09:54:34 10° SSE
ERS-2 2.8 09:45:30 10° SSW 09:48:48 32° W 09:52:09 10° NNW
Lacrosse 5 3.7 09:45:41 10° WNW 09:49:20 19° NNW 09:52:57 10° NNE
Cosmos 990 Rocket 4.4 09:45:06 10° NW 09:49:56 40° WSW 09:54:46 10° S
Cosmos 2333 Rocket 4.1 09:45:14 10° SSE 09:50:16 32° ESE 09:55:20 10° NE
Cosmos 1000 Rocket 4.4 09:45:04 10° SSW 09:51:15 75° W 09:57:26 10° N
Okean 1 4.3 09:48:15 10° S 09:52:11 52° E 09:56:08 10° NNE
Cosmos 540 Rocket 3.4 09:47:23 10° SSW 09:52:33 79° WNW 09:57:45 10° NNE
CZ-4B R/B 4.1 09:49:20 10° NNE 09:52:48 40° E 09:56:11 10° S
Meteor 2-20 4.5 09:47:01 10° S 09:53:09 89° E 09:59:18 10° N
X-37B 0.6 09:51:10 17° W 09:53:29 66° SSW 09:56:39 10° ESE
CZ-4B R/B 4.2 09:50:16 10° NNE 09:54:38 83° E 09:59:06 10° S
ALOS 2.2 09:54:10 10° N 09:58:51 81° WNW 10:03:30 10° SSW
Cosmos 1484 Rocket 2.8 09:55:02 10° N 09:59:02 71° WNW 10:03:00 10° SSW
COSMO-SKYMED 1 3.2 09:58:25 10° SSE 10:02:42 62° ENE 10:07:00 10° N
USA 267 4.4 09:57:51 10° NE 10:03:26 31° NNW 10:09:00 10° WNW
NOSS 3-4 (A) 3.9 09:56:21 10° NW 10:03:27 83° WSW 10:11:19 10° SSE
NOSS 3-4 (C) 3.9 09:56:27 10° NW 10:03:33 84° WSW 10:11:25 10° SSE
Cosmos 1536 3.5 10:02:45 10° NNW 10:06:24 32° W 10:10:03 10° SSW
Cosmos 1725 Rocket 4.1 10:02:08 10° N 10:08:21 85° E 10:14:32 10° S
Meteor 1-31 Rocket 2.7 10:06:47 10° N 10:10:34 63° WNW 10:14:22 10° SSW
Cosmos 1437 Rocket 2.6 10:10:18 10° SSW 10:14:04 73° WNW 10:17:54 10° N
Cosmos 2100 Rocket 4.3 10:08:42 10° NNW 10:14:44 45° W 10:20:43 10° SSW
Cosmos 1544 3.1 10:11:49 10° N 10:15:25 82° E 10:18:59 10° S
PSLV R/B 3.9 10:13:28 10° SSE 10:17:30 85° WSW 10:21:37 10° NNW
deb Chang Zheng 4 4.2 10:15:20 10° N 10:19:15 35° WNW 10:23:08 10° SW
Cosmos 1802 Rocket 4.1 10:14:06 10° NNW 10:20:07 55° W 10:26:11 10° SSW
